Dewpoint
67 67 69 71 71 70 71 71 70 71 70 70 70 70 70 70 70 70 70 70 70 69 69 69 69 69 69 69 67 67 66 66 65 65 65 65 65 65 65 66 67 67 67 67 67 67 67 69 69 69 70 70 70 70 70 70 70 69 69 69 69 69 68 68 67 66 66 65 66 66 66 67 67 66 66 67 66 66 65 65 64 61 63 66 67
67 68 69 70 71 70 70 70 71 71 70 69 70 70 70 70 70 71 71 70 70 69 69 69 69 69 69 69 69 67 68 68 67 66 65 65 65 65 65 65 65 65 66 66 65 65 67 70 69 70 70 70 69 69 69 69 69 68 68 68 68 67 67 68 67 66 66 66 65 65 65 65 66 66 65 65 66 66 65 65 65 62 62 66 67
67 67 68 70 71 71 70 71 70 70 70 70 70 70 70 70 70 70 70 70 69 69 69 68 68 68 68 68 68 68 66 65 66 65 65 64 64 65 65 65 64 64 64 65 65 66 68 69 69 69 69 69 68 68 68 68 68 67 67 68 67 67 66 66 67 67 66 66 66 65 65 65 64 64 65 66 65 65 65 64 64 63 62 65 65
66 66 68 71 71 71 71 71 70 69 69 69 70 70 70 70 71 70 70 70 69 69 68 68 68 68 68 68 68 68 67 67 66 64 64 64 64 64 64 64 64 64 64 65 66 68 68 68 69 69 69 68 68 68 67 67 67 67 67 67 67 66 66 66 66 66 66 66 64 62 61 61 62 64 64 65 65 65 65 64 64 64 64 64 64
66 67 68 69 70 71 71 71 71 71 70 70 70 70 71 71 70 70 70 70 69 68 68 68 68 68 68 68 68 68 67 67 66 65 64 64 64 64 64 64 64 64 64 66 67 67 68 68 68 69 68 68 68 67 67 67 67 66 66 66 65 65 66 65 66 66 65 64 63 61 57 59 61 63 64 64 64 63 63 63 63 63 63 63 63
66 67 68 68 68 71 71 71 71 70 71 71 70 71 71 70 70 70 70 70 69 68 67 68 68 68 68 68 68 68 66 65 66 65 64 63 63 63 64 64 64 64 63 65 67 68 68 68 68 67 66 66 66 66 66 67 66 66 65 65 65 64 65 65 65 66 64 63 62 59 58 60 60 60 64 64 64 63 63 63 63 63 63 62 64
65 66 66 67 68 70 70 71 71 70 71 71 71 71 70 70 70 70 69 69 69 68 67 68 68 68 68 68 68 68 67 66 65 64 63 63 63 63 64 64 64 64 64 66 67 67 67 67 67 67 67 66 66 66 65 65 65 65 65 65 65 65 64 65 65 65 63 59 56 57 57 58 59 61 64 63 64 63 63 63 63 63 62 64 64
66 67 66 67 69 69 70 71 71 70 71 71 71 71 70 70 70 70 69 69 68 68 67 68 68 68 68 68 68 68 67 65 64 64 63 63 63 63 63 64 63 63 65 65 65 65 64 64 65 66 66 66 65 65 65 66 65 65 65 65 65 64 65 65 63 63 62 55 57 57 58 58 58 59 63 63 63 62 62 63 63 63 63 63 63
65 66 66 67 69 69 70 71 71 71 71 71 70 70 70 70 70 69 68 68 68 68 67 68 68 68 68 68 68 64 65 64 64 63 63 63 63 63 63 63 63 64 65 65 66 66 65 65 64 65 66 66 66 65 64 64 64 65 65 65 65 66 64 65 63 61 58 57 56 56 57 58 58 58 62 63 63 63 62 61 61 62 63 63 62
63 64 67 70 69 68 70 70 71 71 71 70 70 70 70 70 69 69 68 69 69 68 68 68 68 68 68 68 65 65 64 64 64 63 63 63 63 63 62 62 63 63 62 63 65 66 68 67 67 66 67 66 64 64 63 63 63 65 65 65 65 65 65 64 62 60 56 56 57 57 60 61 58 58 60 62 63 63 63 63 63 63 63 62 61
63 64 65 69 71 69 70 71 71 71 71 71 70 70 70 70 69 69 69 69 68 68 68 68 68 68 67 67 66 65 64 64 63 63 62 62 62 62 62 62 62 64 64 64 64 65 65 66 66 67 66 66 65 64 64 63 64 64 64 64 64 65 64 62 59 56 56 57 57 58 60 62 59 59 62 62 63 63 63 63 63 62 62 62 62
63 64 66 70 70 69 70 71 71 70 71 71 70 70 70 70 69 69 69 68 68 68 68 68 68 68 67 67 66 65 64 64 63 63 62 62 62 61 61 62 62 64 64 65 66 67 67 67 67 66 66 65 64 63 63 64 64 64 64 64 65 65 64 62 59 59 59 58 59 59 60 59 61 63 65 65 64 64 65 65 65 66 66 66 66
64 64 67 70 71 68 70 70 71 70 70 70 70 70 70 70 69 69 69 69 69 68 68 68 68 68 68 67 66 63 63 64 64 63 63 62 62 62 62 62 62 63 65 65 65 66 66 66 66 66 65 64 64 63 63 64 63 63 63 64 63 64 63 61 59 62 62 63 63 63 63 63 64 65 65 65 66 66 65 66 66 66 65 66 65
64 65 67 68 70 70 68 69 70 71 70 70 69 70 70 70 69 69 69 69 69 68 68 68 68 68 68 67 65 63 62 64 64 64 63 63 62 62 62 63 63 63 64 64 64 64 64 65 65 65 65 64 64 64 63 63 63 63 63 62 62 64 61 59 61 61 62 62 63 63 64 63 63 65 66 66 66 66 66 65 65 65 65 65 65
65 67 68 68 70 70 68 67 69 69 70 70 70 70 70 70 70 69 69 69 69 69 68 68 68 68 68 68 65 63 62 63 64 64 63 63 62 62 62 63 62 63 62 62 62 63 64 63 63 64 64 64 63 63 63 63 62 62 62 62 64 62 58 55 58 59 60 61 61 62 63 63 64 65 64 67 66 65 66 65 65 65 65 65 64
66 67 68 68 68 70 70 68 66 67 69 70 70 70 70 70 70 70 69 69 69 69 69 68 68 68 68 66 65 63 63 63 64 64 63 63 63 62 62 62 62 61 61 60 61 60 61 62 63 63 63 63 63 63 62 62 62 62 62 62 62 60 58 56 56 57 57 58 58 60 61 61 63 65 64 64 65 64 64 64 64 64 64 64 65
65 67 67 68 69 69 69 69 67 64 65 66 68 69 69 70 70 70 70 70 70 68 68 68 68 68 68 67 64 63 63 63 64 64 64 63 63 63 62 62 62 62 62 62 61 61 60 61 62 63 63 63 63 62 62 62 61 61 61 62 61 60 57 55 54 54 53 57 57 57 57 59 61 62 63 63 64 65 64 63 63 63 63 64 63
66 67 67 68 69 68 68 69 69 69 69 66 65 67 68 69 69 69 70 70 70 69 69 69 69 68 68 66 65 64 63 63 63 63 63 63 63 62 61 60 60 61 62 63 62 61 60 61 61 63 63 62 62 62 61 61 61 61 61 61 60 59 57 56 54 53 54 57 55 56 56 61 61 60 61 61 61 61 61 63 63 62 62 62 62
66 65 66 67 67 68 69 70 69 69 69 69 68 69 66 67 67 68 67 69 69 69 69 68 68 68 67 65 64 63 62 63 63 63 63 63 63 62 59 58 59 60 61 62 62 61 60 61 62 62 62 62 62 61 61 61 60 60 61 59 58 56 55 54 53 55 57 56 56 56 56 61 59 59 59 59 59 60 59 62 63 63 62 62 62
66 66 65 67 68 67 68 70 69 68 68 68 70 68 65 64 66 66 67 67 68 68 68 67 66 65 64 62 61 60 59 60 59 59 61 62 62 60 61 58 58 59 60 62 62 62 61 62 62 62 62 61 61 60 60 59 59 59 59 59 57 55 56 56 57 57 58 58 59 59 61 61 62 62 61 60 60 59 60 61 61 62 62 62 62
65 66 66 66 67 67 67 68 68 68 68 68 69 70 69 64 64 63 64 66 66 66 66 63 61 60 60 59 59 57 56 57 57 56 57 59 58 60 61 59 58 59 60 61 62 61 61 61 61 61 60 59 58 57 58 58 58 59 58 57 55 56 57 58 59 58 58 59 60 60 62 61 61 62 62 62 62 63 63 62 62 60 60 61 60
64 65 66 66 66 67 67 66 68 69 69 68 68 68 69 66 68 68 68 65 63 62 65 67 65 65 59 62 61 58 58 57 57 59 57 58 58 57 59 60 59 59 59 60 61 60 60 60 60 59 58 57 56 55 54 55 55 56 56 54 53 56 57 57 58 58 59 59 59 61 62 62 61 62 62 62 62 62 62 62 60 58 57 58 59
63 64 65 65 66 67 67 66 67 68 68 69 69 69 68 68 68 68 68 65 66 67 68 67 67 66 64 64 62 61 60 58 58 60 60 57 58 57 58 59 58 58 57 58 59 60 59 59 58 57 56 57 55 55 54 55 54 53 53 54 54 56 56 56 57 58 58 59 59 61 61 61 61 61 62 61 62 62 61 61 60 59 60 60 58
63 63 65 66 67 67 67 66 67 68 68 68 68 68 68 68 68 68 68 68 68 68 67 66 66 66 65 65 64 62 61 61 59 59 58 56 58 56 57 58 58 57 56 56 57 57 56 56 55 55 55 52 52 51 51 51 52 52 52 52 52 54 55 55 55 56 56 57 58 61 61 61 60 61 62 62 60 59 59 60 59 59 58 58 57
61 64 65 65 65 66 67 66 66 67 68 67 67 67 68 68 68 68 68 68 68 69 68 67 66 66 66 65 65 63 62 61 59 58 57 54 53 53 53 51 50 50 51 49 49 50 50 49 48 49 49 50 49 49 50 50 49 49 49 49 51 52 54 54 54 53 53 54 55 59 61 61 60 61 61 62 60 57 56 56 57 57 56 55 55
59 62 64 64 64 65 66 66 65 66 66 66 66 66 67 68 67 67 67 67 67 67 68 69 66 66 68 66 65 63 62 59 58 58 57 55 52 51 51 50 48 47 43 40 41 42 44 45 46 46 46 47 47 47 47 46 46 45 45 47 48 49 51 52 52 52 52 52 53 56 59 59 59 60 61 61 60 60 59 58 56 55 56 56 56
60 60 62 63 64 65 65 65 64 64 65 65 65 66 67 68 67 67 67 67 68 67 67 67 67 67 69 66 65 63 60 59 59 60 58 56 55 54 52 51 49 45 42 43 45 45 44 44 45 46 46 46 46 45 45 45 44 44 43 44 45 46 47 50 51 51 51 52 52 55 56 58 57 58 59 59 59 59 57 56 56 55 56 56 56
60 60 60 62 64 64 64 64 64 64 64 65 65 64 66 67 68 67 67 66 67 67 66 66 67 68 66 66 64 64 61 60 60 60 59 58 58 56 51 49 48 46 46 46 46 46 45 47 47 47 45 45 44 43 42 42 42 42 43 43 44 44 45 46 49 50 50 51 51 53 56 56 57 56 56 57 56 54 56 55 56 57 57 56 57
59 59 60 60 60 61 59 59 63 63 63 63 62 62 62 65 66 66 66 66 67 67 66 66 66 66 67 65 64 64 62 61 61 60 59 59 58 55 51 50 50 48 47 47 48 48 48 47 46 45 44 43 41 40 39 38 38 38 39 40 41 42 43 44 47 49 50 50 50 50 54 56 54 54 53 53 54 56 56 54 54 55 55 55 55
59 59 60 60 59 59 59 59 59 60 62 63 63 63 62 64 65 66 66 66 67 67 67 66 66 67 67 66 65 65 63 61 61 60 60 60 58 56 53 53 51 49 48 49 48 48 48 47 46 45 43 41 38 36 35 35 34 35 34 36 37 38 39 40 43 46 49 49 50 49 50 53 55 52 52 51 52 52 53 54 54 54 54 55 55
59 59 60 60 59 59 60 60 60 61 61 61 61 61 61 63 66 67 67 66 66 67 68 66 66 66 66 66 65 65 64 62 61 61 60 60 59 57 55 53 52 51 50 50 49 49 48 47 46 43 40 38 35 34 33 33 32 31 31 32 33 34 35 36 39 42 45 48 49 49 48 49 52 53 52 52 52 53 53 52 52 52 53 53 53
58 59 60 60 60 59 60 61 61 60 61 61 61 61 60 62 64 68 69 67 66 66 67 68 67 67 66 66 66 65 64 63 63 61 61 60 60 57 56 54 53 52 51 50 49 49 48 48 46 43 39 36 33 33 32 30 30 29 30 28 28 29 31 33 34 35 39 43 46 47 47 47 47 50 52 51 52 52 52 51 51 51 51 52 51
58 59 59 60 59 60 59 60 61 60 60 60 60 61 60 60 63 65 68 67 66 65 65 66 67 67 67 66 65 65 64 64 63 63 61 61 60 58 56 55 54 54 52 52 51 49 48 47 44 40 36 35 33 32 34 28 27 27 26 26 26 26 26 28 30 30 31 34 37 41 44 44 44 45 47 50 50 51 51 51 51 50 50 49 49
58 58 58 58 59 60 61 61 61 59 59 59 59 59 59 61 62 64 64 66 66 67 66 65 65 67 67 67 67 65 64 63 63 65 62 61 60 58 57 56 55 55 53 51 49 48 47 45 42 38 37 34 33 30 28 28 26 25 25 25 24 25 26 27 26 27 28 29 29 33 34 37 39 41 42 44 48 50 51 51 50 50 49 49 48
58 58 58 58 58 59 59 58 59 59 59 58 58 58 58 59 60 62 63 64 64 65 66 66 66 66 66 67 67 66 65 63 64 63 63 64 62 59 58 57 55 55 54 52 49 47 46 43 40 37 35 32 30 29 28 27 25 24 24 23 24 25 26 26 27 28 28 29 28 30 29 28 30 33 36 38 42 45 50 50 50 49 49 48 47
55 57 58 59 57 58 59 58 58 59 59 59 58 58 57 58 59 59 61 63 63 63 64 65 65 66 65 66 66 66 66 64 64 63 63 63 63 61 60 59 56 54 53 51 48 46 45 43 40 37 32 31 29 29 27 25 24 23 23 22 22 23 22 25 27 26 26 26 28 28 27 28 26 22 29 28 33 39 45 48 49 48 48 48 48
53 54 55 57 57 57 57 57 57 58 58 58 58 58 57 58 57 59 61 62 62 63 64 65 65 65 65 65 65 65 65 65 65 64 63 63 63 61 60 59 58 56 53 51 48 47 45 43 38 36 35 31 31 30 26 25 26 25 25 24 25 23 23 23 24 27 30 27 25 24 26 28 27 33 21 17 21 27 37 43 45 47 47 47 48
51 52 53 54 55 56 56 57 57 57 57 57 58 58 58 58 57 56 57 59 61 62 63 64 65 65 64 65 65 65 64 65 64 64 64 63 62 61 60 59 58 58 55 51 48 46 45 41 38 37 34 32 29 27 25 25 28 27 24 25 25 24 25 24 23 24 24 26 27 26 26 26 27 27 24 26 26 21 27 32 36 40 43 46 48
49 50 51 52 54 54 55 56 57 56 56 57 57 57 57 58 58 58 57 58 58 61 62 62 63 63 64 64 64 64 63 64 63 63 62 62 62 61 60 58 57 57 54 50 48 46 44 40 36 35 33 33 30 28 25 27 28 27 25 22 23 23 23 23 25 25 26 28 27 28 29 26 26 27 26 26 24 28 27 26 22 25 34 40 44
47 48 49 51 52 53 54 54 55 54 54 54 54 54 54 54 55 56 57 57 58 58 61 61 61 62 62 63 63 63 63 63 63 62 62 61 60 58 59 58 57 56 54 51 47 46 44 41 37 37 33 33 31 28 27 25 22 22 23 22 23 23 23 25 24 24 24 24 23 22 22 23 25 28 29 29 26 28 26 25 26 22 25 33 37
46 47 48 50 51 51 52 53 53 53 53 52 53 53 52 53 55 55 55 56 58 59 59 59 60 60 60 62 62 62 62 62 62 62 61 59 59 57 57 57 56 55 54 53 49 46 44 39 37 36 34 31 30 29 28 24 20 18 18 19 18 18 21 20 19 22 23 22 23 22 22 24 27 29 26 26 27 28 27 26 24 24 25 31 27
45 45 47 49 50 50 51 52 52 51 52 52 52 52 53 53 53 54 54 55 56 57 57 57 58 59 59 60 61 61 61 61 60 61 59 59 58 57 56 56 55 54 53 52 51 49 45 40 36 32 33 29 27 27 27 22 25 19 16 16 13 13 15 14 15 18 23 23 25 25 24 23 23 25 24 24 25 24 24 24 26 25 25 25 26
45 45 47 49 50 51 51 51 52 51 52 52 53 53 53 53 54 54 55 55 56 56 57 56 55 55 57 58 59 59 60 60 59 58 58 57 57 56 56 56 55 54 52 51 50 49 46 40 35 32 30 32 28 29 25 27 26 21 20 17 15 18 16 12 15 13 17 22 23 25 25 25 23 22 21 20 21 23 24 24 25 26 26 26 27
44 45 46 47 49 50 51 51 51 52 52 52 52 52 53 54 55 55 55 54 54 51 53 54 53 54 55 55 56 57 58 58 58 58 57 55 55 55 55 55 54 54 53 51 48 45 41 40 37 34 32 29 28 26 26 30 25 21 21 25 20 23 17 14 11 11 15 19 19 21 22 23 25 25 23 20 20 20 22 23 24 25 25 25 27
44 45 46 47 48 49 50 51 51 52 52 52 52 52 53 53 54 53 52 51 51 51 50 52 54 53 53 51 52 54 56 57 57 56 56 56 55 54 54 54 54 54 53 52 48 43 40 38 36 33 31 31 28 27 28 31 30 27 29 23 21 24 22 20 11 9 14 17 19 18 22 20 21 21 22 22 23 22 22 23 23 25 25 25 26
43 45 47 47 48 49 50 50 51 51 51 52 52 52 52 52 51 51 52 52 52 50 50 51 51 51 52 50 50 51 53 54 54 55 55 55 55 54 53 53 54 54 53 51 47 44 40 37 36 34 33 32 30 29 30 32 35 30 38 39 37 24 25 17 14 12 7 11 18 20 20 21 23 21 22 22 22 21 21 22 22 23 24 25 25
43 45 47 47 48 49 50 50 50 51 52 52 52 52 52 52 51 51 53 53 53 52 52 52 51 50 50 50 50 50 50 50 51 52 53 53 54 53 53 53 53 52 51 49 47 44 41 37 36 35 34 34 33 33 33 34 34 31 38 38 36 34 29 17 17 14 9 15 18 18 19 23 21 22 23 21 22 21 21 22 23 22 23 26 29
43 45 47 47 48 48 49 49 50 50 51 52 53 52 51 51 50 51 51 52 53 53 53 52 51 50 51 49 48 47 48 48 49 49 50 50 52 52 52 52 52 51 50 48 47 44 41 40 38 37 36 35 34 35 35 34 31 31 35 35 34 31 32 35 36 21 22 14 11 15 19 20 21 21 21 22 21 20 20 21 22 23 20 24 25
43 45 46 47 48 48 49 49 49 50 50 51 52 52 51 50 50 51 52 52 52 53 52 50 50 49 50 47 46 47 45 45 45 47 46 47 47 49 51 51 52 51 49 49 47 44 41 39 38 38 37 38 36 37 36 35 32 33 32 32 33 30 30 34 38 33 28 20 13 15 18 20 21 19 18 20 20 23 22 23 24 23 20 22 27
44 46 47 48 48 48 48 49 49 49 50 50 50 51 51 49 49 51 52 52 52 52 51 50 50 48 48 45 44 45 44 43 40 41 44 45 44 45 49 50 52 52 49 50 49 46 44 42 40 39 39 39 37 38 38 37 35 36 33 33 32 30 31 28 30 31 32 31 21 16 16 17 14 16 19 20 22 23 23 23 21 24 23 23 23
45 46 47 47 48 48 48 48 48 49 49 50 50 50 50 49 50 51 52 52 52 53 50 49 48 48 47 45 45 44 43 43 40 38 40 41 42 43 45 48 49 48 48 49 48 47 45 44 42 41 40 39 38 39 40 39 36 36 34 31 30 30 29 29 24 29 27 27 23 20 17 15 10 15 18 21 21 22 22 23 21 21 23 22 23